Location: Unspecified
(0.0000°N, 0.0000°E)
Time: 22:50:19
(UTC+00:00)

deb S5M - Pass Details

Date: 19 June 2024
Orbit: 775 x 867 km, 82.5° (Epoch: 14 July)

Event Time Altitude Azimuth Distance (km) Brightness Sun altitude
Exits shadow 04:20:26 20° 176° (S) 1,790 ? -23.0°
Maximum altitude 04:24:14 75° 93° (E) 844 ? -22.2°
Drops below altitude 10° 04:29:42 10° 9° (N) 2,429 ? -21.0°
Sets 04:32:08 0° 7° (N) 3,375 ? -20.4°
